EW3448 Victoria MT current weather conditions

sailwx.info

Wind from 002 at 3 knots gusting 10

Air temperature 26.1° C
Dewpoint 21.3° C

Last reported at 2020-Aug-07 08:02 UTC.
Time now 2020-Aug-07 09:16 UTC

Location: N 36°03' E 014°15'.
View on Google Maps.

See reports from other nearby stations

  
Tides and Currents Weather Stations Pressure Air Temp Water Temp Dewpoint Dewpoint Depression Visibility Wind Speed Wind Dir Waves Ship Positions
date/time (UTC)wind fromknots sea level pressurealtimeterstation pressurevisibilityair tempwater tempwave heightnotes
2020-Aug-07 08:02 002 3 gusting 10 26.1
2020-Aug-07 07:56 005 3 gusting 10 26.1
2020-Aug-07 07:51 007 3 gusting 6 26.1
2020-Aug-07 07:46 009 3 gusting 6 26.1
2020-Aug-07 07:40 010 2 gusting 6 26.1
2020-Aug-07 07:35 009 2 gusting 6 26.1
2020-Aug-07 07:30 008 2 gusting 6 26.1
2020-Aug-07 07:25 008 2 gusting 6 26.1
2020-Aug-07 07:19 008 3 gusting 6 26.1
2020-Aug-07 07:14 006 3 gusting 6 26.1
2020-Aug-07 07:09 005 2 gusting 6 26.1
2020-Aug-07 07:03 004 2 gusting 5 25.6
2020-Aug-07 06:58 004 1 gusting 4 25.6
2020-Aug-07 06:53 004 1 gusting 4 25.6
2020-Aug-07 06:48 004 2 gusting 6 25.6
2020-Aug-07 06:43 004 2 gusting 6 25.6
2020-Aug-07 06:37 004 2 gusting 6 25.6
2020-Aug-07 06:34 004 1 gusting 6 25.0
2020-Aug-07 06:27 004 2 gusting 6 25.0
2020-Aug-07 06:22 004 2 gusting 6 25.0
2020-Aug-07 06:16 004 2 gusting 4 25.0
2020-Aug-07 06:12 004 2 gusting 5 24.4
2020-Aug-07 06:06 004 2 gusting 5 24.4
2020-Aug-07 06:01 004 2 gusting 5 24.4
2020-Aug-07 05:55 004 3 gusting 6 24.4
2020-Aug-07 05:50 004 2 gusting 6 24.4
2020-Aug-07 05:45 004 3 gusting 6 24.4
2020-Aug-07 05:40 004 3 gusting 6 23.9
2020-Aug-07 05:35 004 2 gusting 6 23.9
2020-Aug-07 05:31 004 3 gusting 5 23.9
2020-Aug-07 05:29 004 2 gusting 5 23.9
2020-Aug-07 05:24 004 2 gusting 5 23.9
2020-Aug-07 05:19 004 2 gusting 6 23.9
2020-Aug-07 05:14 004 3 gusting 6 23.9
2020-Aug-07 05:09 004 2 gusting 5 23.9
2020-Aug-07 05:04 004 2 gusting 4 23.9
2020-Aug-07 04:59 004 2 gusting 5 23.9
2020-Aug-07 04:53 004 2 gusting 5 23.9
2020-Aug-07 04:48 004 2 gusting 4 23.9
2020-Aug-07 04:43 004 2 gusting 6 23.9
2020-Aug-07 04:37 004 3 gusting 6 23.9
2020-Aug-07 04:32 004 3 gusting 6 23.9
2020-Aug-07 04:26 004 4 gusting 7 23.9
2020-Aug-07 04:21 004 3 gusting 7 23.9
2020-Aug-07 04:17 004 2 gusting 6 23.9
2020-Aug-07 04:11 004 2 gusting 6 23.9
2020-Aug-07 04:06 004 2 gusting 6 23.9
2020-Aug-07 04:01 004 1 gusting 4 23.9
2020-Aug-07 03:56 004 1 gusting 5 23.9
2020-Aug-07 03:51 004 1 gusting 5 23.9
2020-Aug-07 03:46 004 1 gusting 5 23.9
2020-Aug-07 03:41 004 3 gusting 6 23.9
2020-Aug-07 03:35 004 2 gusting 6 23.9
2020-Aug-07 03:31 004 2 gusting 6 23.9
2020-Aug-07 03:25 004 2 gusting 6 23.9
2020-Aug-07 03:20 002 2 gusting 6 23.9
2020-Aug-07 03:15 001 2 gusting 6 23.9
2020-Aug-07 03:09 001 2 gusting 6 23.9
2020-Aug-07 03:04 001 3 gusting 6 23.9
2020-Aug-07 03:00 001 2 gusting 6 23.9
2020-Aug-07 02:53 001 3 gusting 7 23.9
2020-Aug-07 02:48 001 3 gusting 7 23.9
2020-Aug-07 02:43 23.9
2020-Aug-07 02:38 24.4
2020-Aug-07 02:33 359 3 gusting 7 24.4
2020-Aug-07 02:28 359 3 gusting 7 24.4
2020-Aug-07 02:22 359 2 gusting 6 24.4
2020-Aug-07 02:17 24.4
2020-Aug-07 02:15 360 2 gusting 6 23.9
2020-Aug-07 02:07 001 3 gusting 6 24.4
2020-Aug-07 02:02 001 3 gusting 6 24.4
2020-Aug-07 01:56 001 2 gusting 6 24.4
2020-Aug-07 01:51 002 3 gusting 6 24.4
2020-Aug-07 01:46 001 3 gusting 6 24.4
2020-Aug-07 01:41 001 2 gusting 5 24.4
2020-Aug-07 01:36 001 2 gusting 6 23.9
2020-Aug-07 01:32 001 0 gusting 6 23.9
2020-Aug-07 01:26 001 3 gusting 6 24.4
2020-Aug-07 01:21 359 3 gusting 6 24.4
2020-Aug-07 01:16 359 3 gusting 7 23.9
2020-Aug-07 01:10 24.4
2020-Aug-07 01:05 359 4 gusting 7 24.4
2020-Aug-07 01:01 359 3 gusting 7 23.9
2020-Aug-07 01:00 359 4 gusting 7 24.4
2020-Aug-07 00:55 359 4 gusting 7 24.4
2020-Aug-07 00:49 24.4
2020-Aug-07 00:44 24.4
2020-Aug-07 00:39 359 5 gusting 8 24.4
2020-Aug-07 00:34 359 5 gusting 8 24.4
2020-Aug-07 00:29 359 4 gusting 7 24.4
2020-Aug-07 00:23 359 4 gusting 6 24.4
2020-Aug-07 00:18 359 3 gusting 6 24.4
2020-Aug-07 00:12 359 3 gusting 6 24.4
2020-Aug-07 00:07 359 4 gusting 6 24.4
2020-Aug-07 00:02 359 4 gusting 6 24.4
2020-Aug-06 23:57 359 4 gusting 6 24.4
2020-Aug-06 23:52 359 4 gusting 6 24.4
2020-Aug-06 23:46 355 4 gusting 7 24.4
2020-Aug-06 23:41 24.4
2020-Aug-06 23:36 24.4
2020-Aug-06 23:31 359 4 gusting 8 24.4
2020-Aug-06 23:26 359 4 gusting 6 25.0
2020-Aug-06 23:20 359 4 gusting 6 25.0
2020-Aug-06 23:15 359 4 gusting 6 25.0
2020-Aug-06 23:05 359 4 gusting 7 25.0
2020-Aug-06 23:01 359 4 gusting 6 25.0
2020-Aug-06 22:55 359 4 gusting 7 25.0
2020-Aug-06 22:50 354 4 gusting 7 25.0
2020-Aug-06 22:45 25.6
2020-Aug-06 22:35 359 5 gusting 10 25.6
2020-Aug-06 22:30 356 5 gusting 11 25.6
2020-Aug-06 22:20 356 6 gusting 13 25.6
2020-Aug-06 22:14 351 5 gusting 13 25.6
2020-Aug-06 22:09 359 5 gusting 13 25.6
2020-Aug-06 22:04 354 5 gusting 13 25.6
2020-Aug-06 21:59 355 5 gusting 11 25.6
2020-Aug-06 21:54 309 5 gusting 11 25.6
2020-Aug-06 21:49 332 5 gusting 11 25.6
2020-Aug-06 21:43 323 5 gusting 9 25.6
2020-Aug-06 21:38 354 5 gusting 11 25.6
2020-Aug-06 21:33 356 5 gusting 11 25.6
2020-Aug-06 21:28 355 5 gusting 10 25.6
2020-Aug-06 21:22 337 4 gusting 10 25.6
2020-Aug-06 21:17 333 4 gusting 9 25.6
2020-Aug-06 21:11 341 4 gusting 9 25.6
2020-Aug-06 21:06 326 5 gusting 11 25.6
2020-Aug-06 21:00 335 5 gusting 13 25.6
2020-Aug-06 20:55 323 5 gusting 13 25.6
2020-Aug-06 20:50 297 5 gusting 13 25.6
2020-Aug-06 20:47 328 5 gusting 13 25.6
2020-Aug-06 20:44 323 5 gusting 13 25.6
2020-Aug-06 20:39 324 5 gusting 13 25.6
2020-Aug-06 20:34 325 4 gusting 12 26.1
2020-Aug-06 20:30 340 4 gusting 12 25.6
2020-Aug-06 20:24 345 4 gusting 12 26.1
2020-Aug-06 20:19 337 5 gusting 12 26.1
2020-Aug-06 20:13 322 5 gusting 14 26.1
2020-Aug-06 20:08 323 5 gusting 14 26.1
2020-Aug-06 20:03 330 5 gusting 12 26.1
2020-Aug-06 19:58 305 4 gusting 12 26.1
2020-Aug-06 19:53 323 4 gusting 11 26.1
2020-Aug-06 19:47 314 4 gusting 10 26.1
2020-Aug-06 19:42 335 5 gusting 10 26.1
2020-Aug-06 19:37 321 4 gusting 11 25.6
2020-Aug-06 19:32 307 4 gusting 11 25.6
2020-Aug-06 19:27 333 4 gusting 11 25.6
2020-Aug-06 19:21 323 4 gusting 11 25.6
2020-Aug-06 19:16 331 4 gusting 9 25.6
2020-Aug-06 19:11 323 4 gusting 12 25.6
2020-Aug-06 19:06 310 4 gusting 12 25.6
2020-Aug-06 19:01 319 3 gusting 9 26.1
2020-Aug-06 18:56 323 3 gusting 9 26.1
2020-Aug-06 18:51 314 4 gusting 11 26.1
2020-Aug-06 18:46 343 4 gusting 11 25.6
2020-Aug-06 18:41 304 3 gusting 8 26.1
2020-Aug-06 18:36 298 3 gusting 7 26.1
2020-Aug-06 18:31 309 3 gusting 9 25.6
2020-Aug-06 18:25 312 4 gusting 9 26.1
2020-Aug-06 18:20 330 3 gusting 9 26.1
2020-Aug-06 18:14 330 3 gusting 11 26.1
2020-Aug-06 18:09 320 3 gusting 11 26.1
2020-Aug-06 18:04 308 3 gusting 8 26.1
2020-Aug-06 17:59 321 4 gusting 11 26.1
2020-Aug-06 17:54 314 4 gusting 10 26.1
2020-Aug-06 17:48 297 4 gusting 11 26.1
2020-Aug-06 17:43 307 4 gusting 10 26.1
2020-Aug-06 17:38 321 4 gusting 10 26.1
2020-Aug-06 17:32 307 5 gusting 11 26.7
2020-Aug-06 17:27 315 5 gusting 11 26.7
2020-Aug-06 17:22 301 5 gusting 13 26.7
2020-Aug-06 17:17 322 4 gusting 13 26.7
2020-Aug-06 17:12 333 4 gusting 12 26.7
2020-Aug-06 17:06 300 4 gusting 12 26.7
2020-Aug-06 17:01 302 4 gusting 12 26.7
2020-Aug-06 16:56 311 4 gusting 12 26.7
2020-Aug-06 16:50 310 5 gusting 11 26.7
2020-Aug-06 16:46 304 4 gusting 11 26.7
2020-Aug-06 16:40 314 4 gusting 13 26.7
2020-Aug-06 16:35 337 5 gusting 13 26.7
2020-Aug-06 16:31 302 5 gusting 13 26.7
2020-Aug-06 16:29 293 6 gusting 13 26.7
2020-Aug-06 16:24 317 5 gusting 13 27.2
2020-Aug-06 16:19 326 5 gusting 14 27.2
2020-Aug-06 16:15 300 5 gusting 14 26.7
2020-Aug-06 16:08 282 6 gusting 14 27.2
2020-Aug-06 16:03 007 6 gusting 14 27.2
2020-Aug-06 15:58 332 6 gusting 14 27.2
2020-Aug-06 15:53 338 6 gusting 17 27.2
2020-Aug-06 15:47 300 6 gusting 17 27.2
2020-Aug-06 15:42 335 6 gusting 14 27.2
2020-Aug-06 15:37 335 6 gusting 14 27.2
2020-Aug-06 15:32 283 5 gusting 13 27.8
2020-Aug-06 15:27 328 6 gusting 13 27.8
2020-Aug-06 15:22 347 6 gusting 13 27.8
2020-Aug-06 15:16 331 6 gusting 13 27.8
2020-Aug-06 15:15 325 6 gusting 13 27.2
2020-Aug-06 15:06 311 6 gusting 18 27.8
2020-Aug-06 15:01 302 6 gusting 16 27.8
2020-Aug-06 14:56 307 6 gusting 16 27.8
2020-Aug-06 14:50 325 6 gusting 17 27.8
2020-Aug-06 14:45 300 6 gusting 17 27.8
2020-Aug-06 14:35 340 6 gusting 13 27.8
2020-Aug-06 14:32 318 7 gusting 13 27.8
2020-Aug-06 14:25 313 6 gusting 13 27.8
2020-Aug-06 14:20 333 5 gusting 13 27.8
2020-Aug-06 14:15 322 4 gusting 12 27.8
2020-Aug-06 14:14 343 5 gusting 15 27.8
2020-Aug-06 14:09 304 5 gusting 15 27.8
2020-Aug-06 14:04 294 6 gusting 16 28.3
2020-Aug-06 13:59 296 6 gusting 16 28.3
2020-Aug-06 13:53 301 6 gusting 15 28.3
2020-Aug-06 13:48 333 6 gusting 15 28.3
2020-Aug-06 13:43 352 5 gusting 14 28.3
2020-Aug-06 13:38 002 6 gusting 13 28.3
2020-Aug-06 13:32 296 6 gusting 13 27.8
2020-Aug-06 13:27 281 6 gusting 13 27.8
2020-Aug-06 13:22 343 6 gusting 13 27.8
2020-Aug-06 13:16 325 6 gusting 13 27.8
2020-Aug-06 13:11 312 6 gusting 14 27.8
2020-Aug-06 13:06 003 5 gusting 14 28.3
2020-Aug-06 13:01 311 5 gusting 13 28.3
2020-Aug-06 12:56 306 5 gusting 12 28.3
2020-Aug-06 12:51 308 5 gusting 12 28.3
2020-Aug-06 12:46 359 6 gusting 13 28.3
2020-Aug-06 12:41 321 6 gusting 14 28.3
2020-Aug-06 12:36 307 5 gusting 14 28.3
2020-Aug-06 12:30 310 5 gusting 12 28.3
2020-Aug-06 12:25 336 5 gusting 12 28.3
2020-Aug-06 12:20 276 5 gusting 13 28.3
2020-Aug-06 12:16 323 3 gusting 13 27.8
2020-Aug-06 12:10 335 5 gusting 13 28.3
2020-Aug-06 12:05 309 5 gusting 13 28.3
2020-Aug-06 12:00 338 6 gusting 14 28.3
2020-Aug-06 11:59 348 4 gusting 14 28.3
2020-Aug-06 11:54 001 4 gusting 14 28.3
2020-Aug-06 11:49 359 3 gusting 9 28.3
2020-Aug-06 11:45 326 2 gusting 9 28.3
2020-Aug-06 11:38 283 3 gusting 11 28.9
2020-Aug-06 11:33 304 3 gusting 11 28.9
2020-Aug-06 11:30 324 2 gusting 11 28.3
2020-Aug-06 11:23 296 2 gusting 9 28.9
2020-Aug-06 11:18 270 3 gusting 9 28.3
2020-Aug-06 11:12 307 3 gusting 11 28.3
2020-Aug-06 11:07 311 3 gusting 11 28.3
2020-Aug-06 11:02 307 4 gusting 10 28.3
2020-Aug-06 10:57 357 4 gusting 16 28.3
2020-Aug-06 10:51 303 3 gusting 11 28.3
2020-Aug-06 10:46 308 4 gusting 11 28.3
2020-Aug-06 10:41 318 4 gusting 12 28.3
2020-Aug-06 10:36 321 4 gusting 11 28.3
2020-Aug-06 10:31 303 4 gusting 11 28.3
2020-Aug-06 10:26 319 5 gusting 11 28.3
2020-Aug-06 10:21 284 4 gusting 9 28.3
2020-Aug-06 10:15 346 3 gusting 9 28.3
2020-Aug-06 10:10 335 4 gusting 9 28.3
2020-Aug-06 10:05 318 5 gusting 12 27.8
2020-Aug-06 09:59 297 3 gusting 12 28.3
2020-Aug-06 09:54 306 3 gusting 12 28.3
2020-Aug-06 09:49 345 5 gusting 12 28.3
2020-Aug-06 09:44 294 5 gusting 13 27.8
2020-Aug-06 09:39 346 4 gusting 13 27.8
2020-Aug-06 09:33 322 4 gusting 8 27.8
2020-Aug-06 09:28 346 4 gusting 8 27.8
2020-Aug-06 09:23 323 4 gusting 9 27.8
2020-Aug-06 09:17 298 3 gusting 10 27.8
2020-Aug-06 09:12 322 3 gusting 10 27.8
2020-Aug-06 09:07 314 3 gusting 9 27.8
2020-Aug-06 09:02 328 3 gusting 10 27.2
2020-Aug-06 08:57 309 4 gusting 10 27.2
2020-Aug-06 08:52 328 3 gusting 9 27.2
2020-Aug-06 08:46 293 3 gusting 9 27.2
2020-Aug-06 08:41 316 3 gusting 9 27.2
2020-Aug-06 08:36 331 4 gusting 12 27.2
2020-Aug-06 08:31 308 5 gusting 12 27.2
2020-Aug-06 08:26 294 4 gusting 12 26.7
2020-Aug-06 08:22 326 4 gusting 9 26.7
2020-Aug-06 08:16 001 4 gusting 10 27.2
2020-Aug-06 08:11 304 3 gusting 11 27.2
2020-Aug-06 08:06 340 3 gusting 11 27.2
2020-Aug-06 08:01 288 4 gusting 8 26.7
2020-Aug-06 07:56 309 4 gusting 11 26.7
2020-Aug-06 07:51 349 4 gusting 10 26.7
2020-Aug-06 07:46 339 4 gusting 12 26.7
2020-Aug-06 07:41 333 4 gusting 7 26.7
2020-Aug-06 07:36 309 3 gusting 12 26.7
2020-Aug-06 07:31 338 3 gusting 10 26.7
2020-Aug-06 07:26 317 4 gusting 10 26.7
2020-Aug-06 07:21 349 3 gusting 9 26.7
2020-Aug-06 07:16 316 1 gusting 9 26.1
2020-Aug-06 07:11 281 4 gusting 13 26.7
2020-Aug-06 07:06 343 4 gusting 13 26.1
2020-Aug-06 07:02 359 5 gusting 10 26.1
2020-Aug-06 06:55 304 5 gusting 9 26.1
2020-Aug-06 06:50 352 4 gusting 7 25.6
2020-Aug-06 06:45 336 4 gusting 13 25.6
2020-Aug-06 06:40 356 3 gusting 13 25.6
2020-Aug-06 06:34 340 4 gusting 11 25.6
2020-Aug-06 06:29 359 5 gusting 11 26.1
2020-Aug-06 06:24 342 4 gusting 12 26.1
2020-Aug-06 06:19 333 4 gusting 12 25.6
2020-Aug-06 06:14 347 4 gusting 13 25.6
2020-Aug-06 06:08 351 3 gusting 13 25.6
2020-Aug-06 06:03 331 3 gusting 9 25.6
2020-Aug-06 05:58 337 4 gusting 9 25.0
2020-Aug-06 05:53 321 5 gusting 13 25.0
2020-Aug-06 05:47 356 6 gusting 13 25.0
2020-Aug-06 05:42 349 4 gusting 11 25.0
2020-Aug-06 05:37 357 3 gusting 8 25.0
2020-Aug-06 05:32 359 4 gusting 10 25.0
2020-Aug-06 05:26 357 4 gusting 10 24.4
2020-Aug-06 05:21 359 3 gusting 10 24.4
2020-Aug-06 05:17 346 2 gusting 7 24.4
2020-Aug-06 05:11 344 2 gusting 7 24.4
2020-Aug-06 05:06 320 2 gusting 7 24.4
2020-Aug-06 05:01 332 2 gusting 7 24.4
2020-Aug-06 04:56 335 1 gusting 6 24.4
2020-Aug-06 04:51 335 1 gusting 6 24.4
2020-Aug-06 04:46 330 0 gusting 5 23.9
2020-Aug-06 04:40 333 1 gusting 6 24.4
2020-Aug-06 04:35 333 2 gusting 9 24.4
2020-Aug-06 04:31 332 1 gusting 9 23.9
2020-Aug-06 04:25 343 2 gusting 6 24.4
2020-Aug-06 04:20 342 2 gusting 5 24.4
2020-Aug-06 04:15 345 2 gusting 7 24.4
2020-Aug-06 04:10 347 2 gusting 7 24.4
2020-Aug-06 04:05 335 2 gusting 6 24.4
2020-Aug-06 03:59 335 2 gusting 6 24.4
2020-Aug-06 03:54 343 1 gusting 6 24.4
2020-Aug-06 03:49 345 2 gusting 6 24.4
2020-Aug-06 03:44 344 2 gusting 6 24.4
2020-Aug-06 03:39 317 2 gusting 6 24.4
2020-Aug-06 03:33 333 2 gusting 6 24.4
2020-Aug-06 03:28 333 3 gusting 10 24.4
2020-Aug-06 03:23 333 3 gusting 10 24.4
2020-Aug-06 03:18 348 4 gusting 10 24.4
2020-Aug-06 03:13 314 4 gusting 10 24.4
2020-Aug-06 03:07 356 3 gusting 7 24.4
2020-Aug-06 03:02 356 3 gusting 7 24.4
2020-Aug-06 02:57 349 3 gusting 10 24.4
2020-Aug-06 02:52 356 3 gusting 10 24.4
2020-Aug-06 02:46 358 3 gusting 9 24.4
2020-Aug-06 02:45 359 3 gusting 9 24.4
2020-Aug-06 02:36 341 2 gusting 6 24.4
2020-Aug-06 02:31 350 3 gusting 6 24.4
2020-Aug-06 02:26 352 3 gusting 6 24.4
2020-Aug-06 02:21 354 4 gusting 8 24.4
2020-Aug-06 02:17 356 3 gusting 8 24.4
2020-Aug-06 02:10 359 4 gusting 8 24.4
2020-Aug-06 02:05 352 4 gusting 11 24.4
2020-Aug-06 02:01 360 4 gusting 11 24.4
2020-Aug-06 01:59 351 5 gusting 9 24.4
2020-Aug-06 01:54 357 5 gusting 12 24.4
2020-Aug-06 01:49 354 5 gusting 12 24.4
2020-Aug-06 01:44 359 4 gusting 11 24.4
2020-Aug-06 01:38 327 5 gusting 11 24.4
2020-Aug-06 01:33 352 5 gusting 11 24.4
2020-Aug-06 01:28 359 5 gusting 9 24.4
2020-Aug-06 01:23 352 5 gusting 9 24.4
2020-Aug-06 01:17 356 4 gusting 10 24.4
2020-Aug-06 01:15 360 5 gusting 10 24.4
2020-Aug-06 01:07 354 4 gusting 10 25.0
2020-Aug-06 01:02 343 5 gusting 10 25.0
2020-Aug-06 00:56 346 6 gusting 12 25.0
2020-Aug-06 00:51 355 6 gusting 12 25.0
2020-Aug-06 00:45 359 5 gusting 13 25.0
2020-Aug-06 00:40 340 5 gusting 13 25.0
2020-Aug-06 00:35 25.0
2020-Aug-06 00:31 359 6 gusting 13 25.0
2020-Aug-06 00:25 355 5 gusting 11 25.0
2020-Aug-06 00:20 353 6 gusting 13 25.0
2020-Aug-06 00:15 001 6 gusting 13 25.0
2020-Aug-06 00:10 358 6 gusting 13 25.0
2020-Aug-06 00:04 359 6 gusting 11 25.0
2020-Aug-05 23:59 358 6 gusting 12 25.0
2020-Aug-05 23:54 356 5 gusting 12 25.0
2020-Aug-05 23:49 356 5 gusting 11 25.0
2020-Aug-05 23:43 359 5 gusting 12 25.0
2020-Aug-05 23:38 359 5 gusting 10 25.0
2020-Aug-05 23:33 347 5 gusting 10 25.0
2020-Aug-05 23:28 359 4 gusting 10 25.0
2020-Aug-05 23:23 320 4 gusting 9 25.0
2020-Aug-05 23:17 345 5 gusting 11 25.0
2020-Aug-05 23:12 359 5 gusting 11 25.0
2020-Aug-05 23:07 356 5 gusting 10 25.0
2020-Aug-05 23:02 356 5 gusting 13 25.0
2020-Aug-05 22:56 358 5 gusting 13 25.0
2020-Aug-05 22:51 348 5 gusting 13 25.0
2020-Aug-05 22:46 345 5 gusting 13 25.0
2020-Aug-05 22:41 351 6 gusting 13 25.0
2020-Aug-05 22:35 356 6 gusting 15 25.0
2020-Aug-05 22:31 348 6 gusting 13 25.0
2020-Aug-05 22:30 358 6 gusting 15 25.0
2020-Aug-05 22:25 25.6
2020-Aug-05 22:20 351 7 gusting 15 25.6
2020-Aug-05 22:14 356 6 gusting 14 25.6
2020-Aug-05 22:09 359 6 gusting 14 25.6
2020-Aug-05 22:04 345 7 gusting 17 25.6
2020-Aug-05 21:59 344 7 gusting 17 25.6
2020-Aug-05 21:53 330 7 gusting 19 25.6
2020-Aug-05 21:48 25.6
2020-Aug-05 21:43 337 6 gusting 14 25.6
2020-Aug-05 21:37 346 6 gusting 15 25.6
2020-Aug-05 21:32 359 6 gusting 15 25.6
2020-Aug-05 21:27 352 6 gusting 16 25.6
2020-Aug-05 21:22 356 6 gusting 16 25.6
2020-Aug-05 21:17 325 4 gusting 13 25.6
2020-Aug-05 21:11 340 4 gusting 13 25.6
2020-Aug-05 21:06 339 4 gusting 10 25.6
2020-Aug-05 21:01 313 4 gusting 10 25.6
2020-Aug-05 20:56 329 4 gusting 9 25.6
2020-Aug-05 20:50 304 4 gusting 10 25.6
2020-Aug-05 20:47 323 3 gusting 10 25.6
2020-Aug-05 20:40 318 4 gusting 9 25.6
2020-Aug-05 20:35 318 4 gusting 10 25.6
2020-Aug-05 20:32 354 5 gusting 10 25.6
2020-Aug-05 20:25 338 4 gusting 10 25.6
2020-Aug-05 20:20 334 4 gusting 9 25.6
2020-Aug-05 20:15 340 3 gusting 9 25.6
2020-Aug-05 20:10 347 3 gusting 9 25.6
2020-Aug-05 20:04 349 3 gusting 10 25.6
2020-Aug-05 20:00 352 4 gusting 10 25.6
2020-Aug-05 19:54 323 4 gusting 10 25.6
2020-Aug-05 19:49 341 4 gusting 11 25.6
2020-Aug-05 19:43 317 4 gusting 11 25.6
2020-Aug-05 19:38 335 3 gusting 9 25.6
2020-Aug-05 19:33 314 3 gusting 10 25.6
2020-Aug-05 19:28 303 3 gusting 11 25.6
2020-Aug-05 19:23 306 3 gusting 11 25.6
2020-Aug-05 19:17 324 3 gusting 9 25.6
2020-Aug-05 19:12 324 4 gusting 9 25.6
2020-Aug-05 19:07 320 4 gusting 11 25.6
2020-Aug-05 19:01 317 4 gusting 11 25.6
2020-Aug-05 18:56 306 5 gusting 14 25.6
2020-Aug-05 18:51 326 5 gusting 14 25.6
2020-Aug-05 18:46 320 4 gusting 12 25.0
2020-Aug-05 18:40 299 4 gusting 10 25.6
2020-Aug-05 18:35 309 3 gusting 12 25.6
2020-Aug-05 18:30 307 3 gusting 12 25.6
2020-Aug-05 18:25 319 3 gusting 9 25.6
2020-Aug-05 18:20 278 3 gusting 9 25.6
2020-Aug-05 18:15 311 2 gusting 8 25.6
2020-Aug-05 18:14 311 4 gusting 8 25.6
2020-Aug-05 18:09 309 4 gusting 10 25.6
2020-Aug-05 18:04 297 4 gusting 13 25.6
2020-Aug-05 17:59 310 4 gusting 13 25.6
2020-Aug-05 17:53 295 4 gusting 13 25.6
2020-Aug-05 17:48 293 4 gusting 12 26.1
2020-Aug-05 17:43 313 4 gusting 12 26.1
2020-Aug-05 17:38 323 4 gusting 10 26.1
2020-Aug-05 17:33 294 5 gusting 13 26.1
2020-Aug-05 17:27 331 5 gusting 13 26.1
2020-Aug-05 17:22 278 4 gusting 17 26.1
2020-Aug-05 17:19 299 4 gusting 13 26.1
2020-Aug-05 17:12 339 5 gusting 17 26.1
2020-Aug-05 17:07 334 6 gusting 17 26.1
2020-Aug-05 17:02 309 6 gusting 13 26.1
2020-Aug-05 16:56 295 4 gusting 13 26.7
2020-Aug-05 16:51 307 4 gusting 12 26.7
2020-Aug-05 16:46 310 3 gusting 13 26.1
2020-Aug-05 16:40 304 5 gusting 13 26.7
2020-Aug-05 16:35 320 4 gusting 13 26.7
2020-Aug-05 16:31 309 2 gusting 12 26.7
2020-Aug-05 16:25 319 4 gusting 13 26.7
2020-Aug-05 16:20 318 5 gusting 13 26.7
2020-Aug-05 16:16 311 4 gusting 11 26.7
2020-Aug-05 16:10 315 5 gusting 13 27.2
2020-Aug-05 16:05 316 5 gusting 13 27.2
2020-Aug-05 16:00 307 6 gusting 15 26.7
2020-Aug-05 15:54 336 5 gusting 15 27.2
2020-Aug-05 15:49 303 5 gusting 14 27.2
2020-Aug-05 15:43 330 6 gusting 14 27.2
2020-Aug-05 15:38 283 6 gusting 14 27.2
2020-Aug-05 15:33 354 5 gusting 13 27.2
2020-Aug-05 15:28 349 4 gusting 11 27.2
2020-Aug-05 15:23 294 5 gusting 14 27.2
2020-Aug-05 15:17 321 5 gusting 13 27.2
2020-Aug-05 15:12 290 5 gusting 15 27.2
2020-Aug-05 15:06 311 5 gusting 13 27.8
2020-Aug-05 15:01 300 5 gusting 13 27.8
2020-Aug-05 15:00 285 4 gusting 13 27.2
2020-Aug-05 14:50 310 5 gusting 14 27.8
2020-Aug-05 14:45 302 4 gusting 12 27.8
2020-Aug-05 14:40 326 5 gusting 13 27.8
2020-Aug-05 14:35 305 5 gusting 13 27.8
2020-Aug-05 14:30 286 5 gusting 13 27.8
2020-Aug-05 14:24 296 4 gusting 13 27.8
2020-Aug-05 14:19 335 4 gusting 13 27.8
2020-Aug-05 14:13 333 5 gusting 15 27.8
2020-Aug-05 14:08 326 6 gusting 15 27.8
2020-Aug-05 14:03 311 6 gusting 15 27.8
2020-Aug-05 14:00 303 6 gusting 15 27.8
2020-Aug-05 13:52 293 6 gusting 13 27.8
2020-Aug-05 13:47 321 5 gusting 12 28.3
2020-Aug-05 13:42 336 5 gusting 12 27.8
2020-Aug-05 13:37 336 6 gusting 12 27.8
2020-Aug-05 13:31 290 5 gusting 14 27.2
2020-Aug-05 13:26 302 6 gusting 14 27.8
2020-Aug-05 13:21 321 5 gusting 11 27.8
2020-Aug-05 13:16 287 5 gusting 13 27.8
2020-Aug-05 13:11 300 5 gusting 13 27.8
2020-Aug-05 13:06 347 5 gusting 13 27.8
2020-Aug-05 13:01 345 5 gusting 10 27.8
2020-Aug-05 12:56 308 5 gusting 14 28.3
2020-Aug-05 12:50 338 5 gusting 13 28.3
2020-Aug-05 12:47 307 6 gusting 13 27.8
2020-Aug-05 12:40 314 6 gusting 13 28.3
2020-Aug-05 12:35 285 5 gusting 13 28.3
2020-Aug-05 12:30 356 6 gusting 13 28.3
2020-Aug-05 12:25 325 6 gusting 16 28.3
2020-Aug-05 12:19 358 6 gusting 16 28.3
2020-Aug-05 12:14 337 6 gusting 15 28.3
2020-Aug-05 12:09 328 6 gusting 17 27.8
2020-Aug-05 12:03 285 6 gusting 17 27.8
2020-Aug-05 11:58 354 7 gusting 17 27.8
2020-Aug-05 11:53 290 6 gusting 14 27.8
2020-Aug-05 11:48 311 6 gusting 13 27.8
2020-Aug-05 11:43 340 6 gusting 14 27.8
2020-Aug-05 11:38 335 6 gusting 14 27.8
2020-Aug-05 11:33 359 6 gusting 18 27.8
2020-Aug-05 11:28 353 6 gusting 18 28.3
2020-Aug-05 11:23 310 6 gusting 14 28.3
2020-Aug-05 11:17 340 6 gusting 14 27.8
2020-Aug-05 11:12 312 6 gusting 14 28.3
2020-Aug-05 11:07 337 6 gusting 14 27.8
2020-Aug-05 11:02 345 6 gusting 18 27.8
2020-Aug-05 10:57 333 6 gusting 13 27.8
2020-Aug-05 10:51 307 5 gusting 13 28.3
2020-Aug-05 10:46 297 4 gusting 13 28.3
2020-Aug-05 10:41 328 4 gusting 13 28.3
2020-Aug-05 10:36 302 4 gusting 13 28.3
2020-Aug-05 10:31 304 5 gusting 14 27.8
2020-Aug-05 10:25 294 6 gusting 19 27.2
2020-Aug-05 10:20 298 6 gusting 19 27.2
2020-Aug-05 10:15 300 6 gusting 14 27.2
2020-Aug-05 10:10 312 6 gusting 15 27.2
2020-Aug-05 10:04 346 6 gusting 15 27.2
2020-Aug-05 09:59 273 6 gusting 13 27.2
2020-Aug-05 09:54 359 5 gusting 13 27.2
2020-Aug-05 09:49 304 6 gusting 18 27.2
2020-Aug-05 09:43 285 6 gusting 18 27.2
2020-Aug-05 09:38 318 8 gusting 16 27.2
2020-Aug-05 09:33 278 7 gusting 14 27.2
2020-Aug-05 09:27 278 6 gusting 15 27.2
2020-Aug-05 09:22 316 6 gusting 15 27.2
2020-Aug-05 09:17 015 6 gusting 13 27.2
2020-Aug-05 09:12 359 6 gusting 13 27.2
2020-Aug-05 09:07 358 5 gusting 9 27.2
2020-Aug-05 09:02 348 4 gusting 17 27.2